[[{"header":{"parameterUnit":"m.s-1","parameterCategory":2,"la1":30.2991,"la2":30.254,"lo1":-89.0895,"lo2":-89.0444,"dy":0.0017,"dx":0.0017,"nx":28,"ny":28,"refTime":"2024-05-09T21:00:00:Z","depth":"0","parameterNumber":2,"parameterNumberName":"U-component_of_CURRENTS"},"data":[0,0,0,0,0,0,0,0,0,0,0,0,0,0,0,0,0,0,0,0,0,0,0,0,0,0,0,0,0,0,0,0,0,0,0,0,0,0,0,0,0,0,0,0,0,0,0,0,0,0,0,0,0,0,0,0,0,0,-0.3518,-0.3519,0,-0.3563,-0.3563,-0.3564,-0.3519,-0.3518,-0.3517,-0.3515,-0.3458,-0.3458,-0.3457,0,0,0,0,0,0,0,0,0,0,0,0,0,-0.338,-0.3383,-0.3518,-0.3519,-0.352,-0.3563,-0.3563,-0.3564,-0.352,-0.3518,-0.3516,-0.3515,-0.3458,-0.3458,-0.3457,0,0,0,0,0,0,0,0,0,0,0,0,0,-0.343,-0.3383,-0.3518,-0.3506,-0.3506,-0.3563,-0.3563,-0.3564,-0.352,-0.3518,-0.3516,-0.3514,-0.3458,-0.3458,-0.3457,-0.3496,0,0,-0.3456,-0.3456,0,0,0,0,0,0,0,0,-0.3428,-0.3435,-0.3507,-0.3507,-0.3507,-0.3537,-0.3494,-0.3537,-0.3521,-0.351,-0.3515,-0.3513,-0.3479,-0.3477,-0.3486,-0.3494,-0.3491,-0.3456,-0.3456,-0.3456,-0.3456,0,0,0,0,0,0,0,-0.3424,-0.3433,-0.3532,-0.3508,-0.3508,-0.3494,-0.3499,-0.3502,-0.3501,-0.3511,-0.3509,-0.3521,-0.3477,-0.3486,-0.3484,-0.349,-0.3456,-0.3456,-0.3456,-0.3455,-0.3513,-0.3515,0,0,0,0,0,0,-0.343,-0.343,-0.353,-0.3534,-0.3466,-0.3499,-0.3504,-0.3526,-0.3503,-0.3499,-0.3523,-0.3519,-0.3488,-0.3484,-0.3481,-0.3516,-0.3456,-0.3455,-0.3455,-0.3512,-0.3514,-0.3516,0,0,0,0,0,0,-0.3428,-0.3439,-0.3529,-0.3485,-0.3496,-0.3504,-0.3529,-0.3528,-0.3529,-0.3514,-0.3507,-0.3524,-0.3486,-0.3482,-0.3487,-0.3513,-0.3455,-0.3455,-0.351,-0.3512,-0.3515,-0.3591,0,0,0,0,0,0,-0.3424,-0.3438,-0.3449,-0.3486,-0.3499,-0.3566,-0.3532,-0.3531,-0.3542,-0.3537,-0.3513,-0.3506,-0.3484,-0.3488,-0.3487,-0.3511,-0.3455,-0.3507,-0.3511,-0.3514,-0.3586,-0.3596,-0.3604,0,0,0,0,0,-0.3419,-0.3444,-0.3449,-0.3461,-0.3516,-0.3568,-0.3573,-0.3568,-0.3544,-0.3557,-0.3539,-0.3506,-0.3508,-0.349,-0.3488,-0.3513,-0.3506,-0.351,-0.3514,-0.3582,-0.3594,-0.3604,0,0,0,0,0,0,-0.338,-0.3444,-0.345,-0.349,-0.3528,-0.3562,-0.3572,-0.3574,-0.3573,-0.3559,-0.353,-0.3524,-0.3539,-0.3521,-0.3502,-0.3541,-0.3502,-0.3505,-0.3554,-0.3565,-0.3574,-0.3564,-0.3454,0,0,0,0,0,-0.3384,-0.3418,-0.3475,-0.3503,-0.3526,-0.355,-0.3566,-0.3573,-0.3584,-0.358,-0.3566,-0.3554,-0.356,-0.3556,-0.3555,-0.3579,-0.3542,-0.3594,-0.3603,-0.3611,-0.3604,-0.3592,-0.3599,-0.3529,-0.3529,-0.3529,0,0,-0.3373,-0.3414,-0.3429,-0.3497,-0.3521,-0.357,-0.3552,-0.3588,-0.3619,-0.3576,-0.3594,-0.3585,-0.3574,-0.3599,-0.3604,-0.3582,-0.3611,-0.3616,-0.3622,-0.361,-0.3597,-0.3603,-0.3609,-0.3531,-0.3531,-0.353,0,0,-0.338,-0.3412,-0.3448,-0.3492,-0.3548,-0.3576,-0.359,-0.3632,-0.3637,-0.3671,-0.3646,-0.3653,-0.3658,-0.3659,-0.366,-0.3721,-0.366,-0.3721,-0.3756,-0.3746,-0.3751,-0.3755,-0.3707,-0.3706,-0.3724,-0.3724,-0.3724,0,-0.3363,-0.3419,-0.3463,-0.3517,-0.3547,-0.3582,-0.3626,-0.3658,-0.3691,-0.3698,-0.3681,-0.3699,-0.369,-0.3721,-0.3741,-0.374,-0.3706,-0.3715,-0.3756,-0.3759,-0.3761,-0.3712,-0.371,-0.3728,-0.3727,-0.3727,-0.3727,0,-0.3405,-0.345,-0.3476,-0.3556,-0.36,-0.3642,-0.3704,-0.3736,-0.3745,-0.3764,-0.379,-0.3787,-0.3788,-0.3802,-0.3788,-0.3814,-0.3773,-0.3769,-0.3724,-0.3773,-0.3718,-0.3714,-0.3734,-0.3732,-0.3731,-0.373,0,0,-0.3348,-0.3479,-0.3482,-0.3521,-0.362,-0.3656,-0.3728,-0.3789,-0.3813,-0.3845,-0.3861,-0.3893,-0.3874,-0.3874,-0.3863,-0.3861,-0.3855,-0.3823,-0.382,-0.3766,-0.3798,-0.37,-0.3686,-0.3854,-0.3854,-0.3855,-0.3748,0,-0.3355,-0.3449,-0.3517,-0.3589,-0.3637,-0.3706,-0.3762,-0.3823,-0.3861,-0.3889,-0.3901,-0.391,-0.3909,-0.3898,-0.3906,-0.3867,-0.3851,-0.3882,-0.3766,-0.3761,-0.3662,-0.3681,-0.3544,-0.3431,-0.3744,-0.3743,-0.3743,0,-0.3356,-0.3421,-0.3498,-0.3599,-0.3623,-0.3672,-0.3752,-0.3812,-0.3882,-0.3902,-0.3931,-0.3933,-0.3945,-0.3927,-0.3893,-0.3908,-0.3855,-0.3824,-0.3819,-0.3695,-0.3657,-0.3436,-0.3413,-0.3381,-0.3737,-0.3737,-0.3738,0,-0.3271,-0.3394,-0.3446,-0.3485,-0.3615,-0.3647,-0.3707,-0.3797,-0.384,-0.3897,-0.3917,-0.3938,-0.393,-0.3898,-0.3853,-0.3862,-0.3791,-0.3794,-0.3653,-0.3644,-0.3486,-0.3463,-0.3408,-0.3753,-0.3753,-0.3754,-0.3754,0,-0.324,-0.3273,-0.3406,-0.3432,-0.3476,-0.3586,-0.3637,-0.3703,-0.3791,-0.3813,-0.3898,-0.3904,-0.3922,-0.3897,-0.3846,-0.3731,-0.3783,-0.3646,-0.3613,-0.3508,-0.3489,-0.342,-0.3452,-0.375,-0.3751,-0.3751,-0.3752,0,-0.313,-0.3226,-0.3283,-0.3407,-0.3439,-0.3463,-0.3588,-0.361,-0.3726,-0.3758,-0.3769,-0.3865,-0.3824,-0.3824,-0.3757,-0.3701,-0.3541,-0.3556,-0.3414,-0.3366,-0.3194,-0.3235,-0.313,-0.3038,-0.3368,-0.3365,-0.3363,0,-0.3084,-0.3104,-0.3225,-0.3234,-0.3281,-0.335,-0.3375,-0.3531,-0.3564,-0.3709,-0.3687,-0.3724,-0.3694,-0.36,-0.3505,-0.3386,-0.3402,-0.3197,-0.3199,-0.3152,-0.3176,-0.3212,-0.3145,-0.3013,-0.3008,-0.3004,-0.3,0,-0.2961,-0.3001,-0.3033,-0.3083,-0.3109,-0.3168,-0.3229,-0.3268,-0.3422,-0.3473,-0.3515,-0.3523,-0.3464,-0.3311,-0.3202,-0.3115,-0.3117,-0.3103,-0.3099,-0.2923,-0.2914,-0.2819,-0.3107,-0.2962,-0.2966,-0.2969,-0.2971,-0.2972,-0.2821,-0.2818,-0.2864,-0.2885,-0.2922,-0.2956,-0.2937,-0.3025,-0.3081,-0.3114,-0.3242,-0.3209,-0.3161,-0.2991,-0.2899,-0.272,-0.2813,-0.265,-0.2709,-0.2752,-0.2653,-0.2841,-0.2644,-0.2646,-0.2648,-0.2649,-0.2651,0,-0.2642,-0.2652,-0.266,-0.269,-0.2652,-0.2753,-0.279,-0.2743,-0.2723,-0.2821,-0.2827,-0.2846,-0.2691,-0.2659,-0.2507,-0.2383,-0.2325,-0.2335,-0.2366,-0.2317,-0.2496,-0.247,-0.2174,-0.2174,-0.2174,-0.2174,-0.2174,-0.2174,-0.254,-0.2484,-0.2505,-0.2403,-0.241,-0.2317,-0.2296,-0.2258,-0.2294,-0.2291,-0.2349,-0.2465,-0.2487,-0.2596,-0.2395,-0.2254,-0.2202,-0.2126,-0.2166,-0.2326,-0.2361,-0.2394,-0.2376,-0.2065,-0.2065,-0.189,-0.1889,-0.1888]},{"header":{"parameterUnit":"m.s-1","parameterCategory":2,"la1":30.2991,"la2":30.254,"lo1":-89.0895,"lo2":-89.0444,"dy":0.0017,"dx":0.0017,"nx":28,"ny":28,"refTime":"2024-05-09T21:00:00:Z","depth":"0","parameterNumber":3,"parameterNumberName":"V-component_of_CURRENTS"},"data":[0,0,0,0,0,0,0,0,0,0,0,0,0,0,0,0,0,0,0,0,0,0,0,0,0,0,0,0,0,0,0,0,0,0,0,0,0,0,0,0,0,0,0,0,0,0,0,0,0,0,0,0,0,0,0,0,0,0,-0.0448,-0.0447,0,-0.033,-0.0329,-0.0327,-0.0244,-0.0243,-0.0243,-0.0243,-0.0083,-0.0079,-0.0075,0,0,0,0,0,0,0,0,0,0,0,0,0,-0.0521,-0.0521,-0.0448,-0.0447,-0.0446,-0.033,-0.0329,-0.0327,-0.0244,-0.0243,-0.0243,-0.0242,-0.0084,-0.0079,-0.0075,0,0,0,0,0,0,0,0,0,0,0,0,0,-0.0453,-0.0521,-0.0448,-0.0392,-0.0386,-0.0331,-0.0329,-0.0326,-0.0244,-0.0243,-0.0243,-0.0242,-0.0085,-0.008,-0.0074,-0.0052,0,0,-0.0056,-0.0054,0,0,0,0,0,0,0,0,-0.0457,-0.045,-0.0402,-0.0396,-0.0389,-0.0303,-0.0296,-0.0233,-0.0244,-0.0296,-0.0243,-0.0242,-0.0154,-0.0143,-0.012,-0.0044,-0.0037,-0.0056,-0.0052,-0.005,-0.0048,0,0,0,0,0,0,0,-0.0462,-0.0454,-0.0399,-0.04,-0.0393,-0.0345,-0.0336,-0.0283,-0.0228,-0.0291,-0.0285,-0.0276,-0.015,-0.0125,-0.0115,-0.0035,-0.0056,-0.0051,-0.0047,-0.0045,0.0081,0.0081,0,0,0,0,0,0,-0.0486,-0.046,-0.0403,-0.0396,-0.0425,-0.0345,-0.0334,-0.0329,-0.0229,-0.0214,-0.0277,-0.0273,-0.0136,-0.0122,-0.0109,-0.0078,-0.005,-0.0045,-0.0041,0.0081,0.0081,0.0081,0,0,0,0,0,0,-0.0488,-0.0483,-0.0408,-0.0426,-0.0414,-0.0346,-0.0341,-0.0328,-0.0303,-0.0219,-0.0202,-0.0266,-0.0134,-0.0117,-0.0064,-0.0071,-0.0042,-0.0037,0.0081,0.0081,0.0081,-0.0014,0,0,0,0,0,0,-0.0491,-0.0484,-0.0492,-0.0428,-0.0414,-0.0388,-0.0341,-0.0326,-0.03,-0.0293,-0.0205,-0.0189,-0.0133,-0.0073,-0.0058,-0.0062,-0.0032,0.0081,0.0081,0.0081,-0.0011,-0.0018,-0.0023,0,0,0,0,0,-0.0494,-0.0514,-0.0493,-0.0486,-0.0426,-0.0389,-0.0377,-0.0324,-0.03,-0.0298,-0.0233,-0.0192,-0.0064,-0.0069,-0.0051,-0.0054,0.0081,0.0081,0.0081,-0.0008,-0.0016,-0.0023,0,0,0,0,0,0,-0.0549,-0.0505,-0.0481,-0.0486,-0.0445,-0.0376,-0.0372,-0.0333,-0.028,-0.0273,-0.019,-0.017,-0.0129,-0.0077,-0.0085,-0.0017,0.0015,0.0018,-0.0059,-0.0066,-0.0072,-0.0089,-0.0027,0,0,0,0,0,-0.0566,-0.0569,-0.0514,-0.0518,-0.0504,-0.0439,-0.0418,-0.0382,-0.0326,-0.0302,-0.0239,-0.0172,-0.0117,-0.0082,-0.0029,0.0011,0.0073,0.0021,0.0015,0.0009,0.0007,0.0093,0.0094,0.008,0.008,0.008,0,0,-0.0589,-0.0565,-0.0566,-0.053,-0.0494,-0.0484,-0.0424,-0.0403,-0.0387,-0.0293,-0.0256,-0.0195,-0.0113,-0.0071,-0.0047,-0.0027,0.0045,0.0009,0.0003,0.0005,0.0092,0.0094,0.0095,0.008,0.008,0.008,0,0,-0.0642,-0.0616,-0.0637,-0.0612,-0.0571,-0.0525,-0.0525,-0.0461,-0.0426,-0.0383,-0.0313,-0.0253,-0.0172,-0.0108,-0.0066,-0.0073,0.0003,-0.0061,-0.0097,-0.0015,-0.0013,-0.0011,0.0064,0.0074,-0.0057,-0.0057,-0.0058,0,-0.0674,-0.0686,-0.0637,-0.0649,-0.0638,-0.0552,-0.0568,-0.0517,-0.0442,-0.0411,-0.0387,-0.0252,-0.0188,-0.0117,-0.0121,-0.0087,-0.0031,-0.0079,-0.0024,-0.002,-0.0016,0.0061,0.0073,-0.0062,-0.0062,-0.0061,-0.0061,0,-0.0739,-0.0746,-0.0758,-0.0742,-0.0723,-0.0721,-0.0652,-0.0615,-0.056,-0.0501,-0.0428,-0.033,-0.0247,-0.022,-0.0171,-0.0111,-0.0078,-0.005,-0.001,-0.0021,0.0061,0.0075,-0.0069,-0.0067,-0.0066,-0.0065,0,0,-0.0809,-0.0807,-0.0808,-0.0822,-0.0773,-0.0765,-0.0733,-0.0674,-0.0644,-0.0559,-0.0511,-0.0411,-0.0346,-0.0294,-0.0218,-0.0144,-0.0069,-0.0094,-0.0087,-0.0028,0.011,0.0172,0.0194,-0.0032,-0.003,-0.0029,0.0153,0,-0.0872,-0.0929,-0.0898,-0.0932,-0.0953,-0.0872,-0.0853,-0.0786,-0.0702,-0.063,-0.0508,-0.0437,-0.0376,-0.0334,-0.0252,-0.0112,-0.0035,-0.0121,0.012,0.0127,0.0177,0.0212,0.0258,0.0427,0.0168,0.017,0.0172,0,-0.0941,-0.0969,-0.103,-0.1033,-0.1034,-0.1032,-0.0973,-0.0938,-0.0806,-0.0744,-0.0634,-0.053,-0.04,-0.0353,-0.012,-0.0179,-0.005,0.0059,0.0069,0.0171,0.0216,0.04,0.0464,0.0676,0.0195,0.0193,0.0192,0,-0.1023,-0.1054,-0.1108,-0.1112,-0.11,-0.11,-0.1073,-0.0973,-0.0939,-0.0798,-0.075,-0.0581,-0.0483,-0.0307,-0.0079,-0.0098,0.0182,0.0191,0.037,0.0376,0.0487,0.0499,0.078,0.035,0.0349,0.0349,0.0348,0,-0.1102,-0.114,-0.1152,-0.1184,-0.1235,-0.1187,-0.1192,-0.1131,-0.1032,-0.0989,-0.0815,-0.0729,-0.0467,-0.0271,-0.0084,0.02,0.0187,0.0379,0.0435,0.0455,0.0461,0.0707,0.0784,0.0355,0.0354,0.0353,0.0351,0,-0.1182,-0.1188,-0.1255,-0.1272,-0.128,-0.1312,-0.129,-0.1276,-0.1171,-0.1101,-0.1061,-0.0821,-0.0553,-0.028,0.0039,0.0205,0.0605,0.0557,0.056,0.0614,0.0956,0.1024,0.1353,0.1493,0.0782,0.0784,0.0787,0,-0.1229,-0.1273,-0.1337,-0.1379,-0.139,-0.1419,-0.1434,-0.1358,-0.133,-0.1152,-0.1122,-0.0843,-0.0626,-0.0122,0.0234,0.0602,0.0753,0.0841,0.0815,0.1005,0.1123,0.1162,0.1257,0.0927,0.0931,0.0933,0.0935,0,-0.1311,-0.1332,-0.1385,-0.1487,-0.1528,-0.1572,-0.1577,-0.1579,-0.1467,-0.1376,-0.1189,-0.0992,-0.0475,0.0002,0.0489,0.0695,0.101,0.0906,0.112,0.1281,0.1329,0.1478,0.0767,0.0959,0.0957,0.0955,0.0954,0.0953,-0.1356,-0.142,-0.1493,-0.1581,-0.1641,-0.1697,-0.172,-0.1687,-0.1634,-0.1464,-0.1253,-0.0911,-0.0206,0.051,0.0774,0.1313,0.1243,0.1444,0.1516,0.1544,0.1668,0.1003,0.1241,0.124,0.1239,0.1239,0.1238,0,-0.1409,-0.148,-0.1578,-0.1682,-0.1764,-0.1768,-0.1793,-0.1766,-0.1695,-0.1476,-0.1242,-0.0474,0.0217,0.0847,0.1627,0.1909,0.1972,0.2028,0.2106,0.2179,0.1622,0.1618,0.1928,0.1928,0.1928,0.1928,0.1927,0.1927,-0.1434,-0.1541,-0.1601,-0.1754,-0.1823,-0.1883,-0.1888,-0.1815,-0.1655,-0.1268,-0.0852,-0.0496,0.0431,0.1711,0.2423,0.2473,0.2725,0.2679,0.2825,0.2436,0.2387,0.2339,0.2358,0.2818,0.2819,0.3364,0.337,0.3374]}],[{"header":{"parameterUnit":"m.s-1","parameterCategory":2,"la1":30.2991,"la2":30.254,"lo1":-89.0895,"lo2":-89.0444,"dy":0.0017,"dx":0.0017,"nx":28,"ny":28,"refTime":"2024-05-09T21:00:00:Z","depth":"2","parameterNumber":2,"parameterNumberName":"U-component_of_CURRENTS"},"data":[0,0,0,0,0,0,0,0,0,0,0,0,0,0,0,0,0,0,0,0,0,0,0,0,0,0,0,0,0,0,0,0,0,0,0,0,0,0,0,0,0,0,0,0,0,0,0,0,0,0,0,0,0,0,0,0,0,0,-0.3105,-0.3105,0,-0.3159,-0.3159,-0.316,-0.3137,-0.3136,-0.3135,-0.3134,-0.3113,-0.3114,-0.3114,0,0,0,0,0,0,0,0,0,0,0,0,0,-0.2983,-0.2985,-0.3104,-0.3105,-0.3106,-0.3159,-0.3159,-0.316,-0.3137,-0.3136,-0.3135,-0.3134,-0.3113,-0.3114,-0.3114,0,0,0,0,0,0,0,0,0,0,0,0,0,-0.3034,-0.2986,-0.3104,-0.3104,-0.3105,-0.3159,-0.3159,-0.316,-0.3138,-0.3136,-0.3135,-0.3133,-0.3113,-0.3114,-0.3114,-0.3147,0,0,-0.3116,-0.3116,0,0,0,0,0,0,0,0,-0.3031,-0.3038,-0.3103,-0.3104,-0.3105,-0.3143,-0.3109,-0.3153,-0.3138,-0.3122,-0.3134,-0.3132,-0.3119,-0.3119,-0.3129,-0.3146,-0.3146,-0.3116,-0.3116,-0.3116,-0.3117,0,0,0,0,0,0,0,-0.3027,-0.3035,-0.3123,-0.3104,-0.3106,-0.3102,-0.3107,-0.3118,-0.3124,-0.3123,-0.3122,-0.3134,-0.3119,-0.3129,-0.3128,-0.3145,-0.3116,-0.3116,-0.3117,-0.3117,-0.3191,-0.3193,0,0,0,0,0,0,-0.3029,-0.3032,-0.3121,-0.3125,-0.3067,-0.3106,-0.3111,-0.3129,-0.3126,-0.3125,-0.3135,-0.3133,-0.3129,-0.3128,-0.3127,-0.3173,-0.3116,-0.3117,-0.3117,-0.319,-0.3192,-0.3193,0,0,0,0,0,0,-0.3027,-0.3037,-0.3119,-0.3082,-0.3092,-0.311,-0.313,-0.3131,-0.3142,-0.3137,-0.3134,-0.3144,-0.3127,-0.3127,-0.3145,-0.3172,-0.3117,-0.3118,-0.3188,-0.319,-0.3193,-0.326,0,0,0,0,0,0,-0.3023,-0.3036,-0.3046,-0.3082,-0.3094,-0.3157,-0.3132,-0.3134,-0.3153,-0.315,-0.3144,-0.314,-0.3126,-0.3144,-0.3145,-0.3171,-0.3118,-0.3186,-0.3189,-0.3192,-0.3256,-0.3265,-0.3272,0,0,0,0,0,-0.3019,-0.3039,-0.3046,-0.3057,-0.3109,-0.3158,-0.3165,-0.3169,-0.3155,-0.317,-0.3165,-0.3141,-0.3164,-0.3146,-0.3147,-0.3174,-0.3184,-0.3188,-0.3192,-0.3252,-0.3263,-0.3272,0,0,0,0,0,0,-0.2986,-0.3041,-0.3049,-0.3083,-0.3122,-0.3156,-0.3169,-0.3177,-0.3188,-0.3181,-0.3164,-0.3162,-0.3188,-0.3176,-0.3157,-0.3205,-0.317,-0.3174,-0.3216,-0.3226,-0.3234,-0.3225,-0.3119,0,0,0,0,0,-0.2989,-0.3018,-0.3069,-0.3095,-0.3117,-0.3145,-0.3164,-0.3176,-0.3194,-0.3197,-0.3195,-0.3195,-0.3207,-0.3211,-0.3217,-0.3247,-0.3216,-0.3265,-0.3273,-0.328,-0.3275,-0.3269,-0.3276,-0.3206,-0.3206,-0.3206,0,0,-0.2981,-0.3016,-0.3031,-0.3091,-0.3116,-0.3162,-0.3151,-0.319,-0.3223,-0.3194,-0.3225,-0.3225,-0.3222,-0.3254,-0.3264,-0.3245,-0.3283,-0.3285,-0.329,-0.3282,-0.3274,-0.328,-0.3286,-0.3208,-0.3208,-0.3207,0,0,-0.299,-0.3017,-0.3049,-0.309,-0.3144,-0.3172,-0.3188,-0.3233,-0.3245,-0.3288,-0.3272,-0.3288,-0.3308,-0.3313,-0.3317,-0.3376,-0.3328,-0.338,-0.3413,-0.3409,-0.3414,-0.3418,-0.3379,-0.3379,-0.3383,-0.3383,-0.3383,0,-0.2978,-0.3026,-0.3064,-0.3111,-0.3142,-0.318,-0.3222,-0.3257,-0.3301,-0.3314,-0.3303,-0.3339,-0.3337,-0.3373,-0.3392,-0.3394,-0.3368,-0.3376,-0.3418,-0.3421,-0.3425,-0.3383,-0.3382,-0.3387,-0.3386,-0.3386,-0.3385,0,-0.3014,-0.3056,-0.3079,-0.3151,-0.3194,-0.3235,-0.3296,-0.3335,-0.3353,-0.3378,-0.3416,-0.3421,-0.3433,-0.3447,-0.3437,-0.3468,-0.3433,-0.3429,-0.3389,-0.3435,-0.3389,-0.3387,-0.3392,-0.3391,-0.3389,-0.3388,0,0,-0.2965,-0.3081,-0.3086,-0.3123,-0.3215,-0.3251,-0.3323,-0.3387,-0.3418,-0.3459,-0.3486,-0.3523,-0.3514,-0.3518,-0.3512,-0.3513,-0.3514,-0.3482,-0.348,-0.3434,-0.3474,-0.3376,-0.3363,-0.3516,-0.3516,-0.3517,-0.3429,0,-0.2973,-0.3057,-0.3117,-0.3189,-0.3233,-0.3302,-0.3362,-0.3426,-0.3468,-0.3507,-0.3526,-0.3547,-0.3546,-0.3545,-0.3554,-0.3526,-0.3513,-0.3536,-0.3443,-0.3439,-0.334,-0.336,-0.313,-0.3026,-0.3426,-0.3426,-0.3425,0,-0.2975,-0.3032,-0.3106,-0.3204,-0.3228,-0.3279,-0.3365,-0.3425,-0.3503,-0.353,-0.3567,-0.3577,-0.3597,-0.358,-0.3558,-0.357,-0.3525,-0.3498,-0.3494,-0.3374,-0.3337,-0.3047,-0.3007,-0.3421,-0.3422,-0.3422,-0.3422,0,-0.29,-0.3014,-0.3066,-0.3102,-0.3228,-0.3265,-0.3325,-0.3419,-0.3465,-0.3532,-0.3559,-0.3591,-0.3594,-0.3569,-0.3531,-0.3539,-0.3483,-0.3485,-0.3349,-0.334,-0.3111,-0.3081,-0.3453,-0.3453,-0.3453,-0.3453,-0.3454,0,-0.2873,-0.2908,-0.3034,-0.306,-0.3111,-0.3216,-0.3274,-0.3341,-0.3433,-0.3461,-0.3549,-0.3563,-0.3592,-0.3574,-0.3529,-0.3425,-0.3479,-0.3344,-0.3315,-0.3127,-0.3102,-0.3422,-0.3419,-0.345,-0.3451,-0.3451,-0.3452,0,-0.2778,-0.2868,-0.2924,-0.3045,-0.3079,-0.3108,-0.3232,-0.3259,-0.3377,-0.3416,-0.3433,-0.3534,-0.3505,-0.3512,-0.3459,-0.3404,-0.3324,-0.327,-0.3034,-0.2979,-0.318,-0.3183,-0.3103,-0.3099,-0.3095,-0.3092,-0.309,0,-0.2738,-0.276,-0.2875,-0.2887,-0.2936,-0.3008,-0.3037,-0.3189,-0.3221,-0.3371,-0.3355,-0.3405,-0.3377,-0.3299,-0.3208,-0.3098,-0.3208,-0.283,-0.2812,-0.3167,-0.3146,-0.3154,-0.3161,-0.2525,-0.2518,-0.2512,-0.2508,0,-0.2628,-0.267,-0.27,-0.2751,-0.2781,-0.2838,-0.2901,-0.2937,-0.3089,-0.3141,-0.3184,-0.3192,-0.3144,-0.295,-0.2852,-0.276,-0.2836,-0.2711,-0.3129,-0.2665,-0.2619,-0.2601,-0.2626,-0.2457,-0.2463,-0.2466,-0.2469,-0.2471,-0.2505,-0.2502,-0.2547,-0.257,-0.2609,-0.264,-0.262,-0.2701,-0.2751,-0.278,-0.2907,-0.2838,-0.2828,-0.2561,-0.2419,-0.2316,-0.2509,-0.24,-0.2418,-0.2443,-0.2407,-0.2359,-0.214,-0.2143,-0.2146,-0.2148,-0.215,0,-0.2343,-0.2354,-0.2362,-0.2389,-0.2355,-0.2455,-0.2484,-0.2433,-0.2404,-0.2473,-0.2475,-0.2251,-0.2137,-0.2131,-0.1894,-0.1843,-0.1831,-0.1766,-0.1757,-0.1808,-0.1853,-0.1789,-0.1357,-0.1354,-0.1352,-0.135,0,0,-0.2253,-0.2201,-0.2217,-0.2122,-0.2132,-0.2045,-0.2021,-0.1968,-0.1976,-0.1904,-0.1871,-0.2036,-0.209,-0.1737,-0.1644,-0.1465,-0.1621,-0.1389,-0.2028,-0.207,-0.2112,-0.2221,-0.218,0,0,0,0,0]},{"header":{"parameterUnit":"m.s-1","parameterCategory":2,"la1":30.2991,"la2":30.254,"lo1":-89.0895,"lo2":-89.0444,"dy":0.0017,"dx":0.0017,"nx":28,"ny":28,"refTime":"2024-05-09T21:00:00:Z","depth":"2","parameterNumber":3,"parameterNumberName":"V-component_of_CURRENTS"},"data":[0,0,0,0,0,0,0,0,0,0,0,0,0,0,0,0,0,0,0,0,0,0,0,0,0,0,0,0,0,0,0,0,0,0,0,0,0,0,0,0,0,0,0,0,0,0,0,0,0,0,0,0,0,0,0,0,0,0,-0.0309,-0.0308,0,-0.0208,-0.0206,-0.0205,-0.0132,-0.0131,-0.0131,-0.0131,0.0011,0.0014,0.0017,0,0,0,0,0,0,0,0,0,0,0,0,0,-0.0369,-0.0368,-0.0309,-0.0308,-0.0307,-0.0208,-0.0206,-0.0205,-0.0132,-0.0131,-0.0131,-0.013,0.0009,0.0013,0.0018,0,0,0,0,0,0,0,0,0,0,0,0,0,-0.0311,-0.0368,-0.0309,-0.0261,-0.0255,-0.0208,-0.0206,-0.0204,-0.0132,-0.0131,-0.0131,-0.013,0.0008,0.0013,0.0018,0.0037,0,0,0.0034,0.0036,0,0,0,0,0,0,0,0,-0.0314,-0.0309,-0.0269,-0.0264,-0.0258,-0.0184,-0.0176,-0.0122,-0.0132,-0.0176,-0.0131,-0.013,-0.0053,-0.0043,-0.0022,0.0044,0.005,0.0034,0.0037,0.0039,0.0041,0,0,0,0,0,0,0,-0.0319,-0.0312,-0.0267,-0.0268,-0.0261,-0.0219,-0.0211,-0.0165,-0.0117,-0.0172,-0.0167,-0.016,-0.0049,-0.0027,-0.0018,0.0052,0.0034,0.0038,0.0042,0.0044,0.0157,0.0157,0,0,0,0,0,0,-0.034,-0.0316,-0.027,-0.0264,-0.0288,-0.0219,-0.021,-0.0206,-0.0118,-0.0105,-0.0161,-0.0157,-0.0036,-0.0024,-0.0013,0.0018,0.0039,0.0044,0.0047,0.0157,0.0157,0.0157,0,0,0,0,0,0,-0.0342,-0.0337,-0.0274,-0.0289,-0.0279,-0.022,-0.0216,-0.0205,-0.0184,-0.011,-0.0095,-0.0152,-0.0035,-0.002,0.0027,0.0024,0.0046,0.0051,0.0157,0.0157,0.0157,0.0078,0,0,0,0,0,0,-0.0344,-0.0338,-0.0346,-0.0291,-0.0279,-0.0258,-0.0216,-0.0203,-0.0181,-0.0175,-0.0098,-0.0084,-0.0034,0.0019,0.0032,0.0031,0.0055,0.0158,0.0157,0.0157,0.0081,0.0076,0.0071,0,0,0,0,0,-0.0347,-0.0366,-0.0347,-0.0342,-0.0291,-0.0259,-0.0249,-0.0202,-0.0182,-0.018,-0.0122,-0.0086,0.0028,0.0023,0.0039,0.0039,0.0158,0.0157,0.0157,0.0083,0.0077,0.0071,0,0,0,0,0,0,-0.0395,-0.0358,-0.0337,-0.0344,-0.0308,-0.0247,-0.0245,-0.0211,-0.0164,-0.0158,-0.0085,-0.0067,-0.003,0.0016,0.0009,0.0072,0.0098,0.0101,0.0037,0.0031,0.0026,0.0009,0.0059,0,0,0,0,0,-0.0412,-0.0416,-0.0367,-0.0373,-0.0361,-0.0304,-0.0286,-0.0254,-0.0205,-0.0184,-0.0128,-0.0068,-0.0018,0.0014,0.0061,0.0098,0.0152,0.0109,0.0104,0.0099,0.0096,0.0176,0.0178,0.0157,0.0157,0.0157,0,0,-0.0433,-0.0413,-0.0415,-0.0383,-0.0353,-0.0344,-0.0291,-0.0274,-0.0258,-0.0176,-0.0143,-0.0089,-0.0014,0.0026,0.0047,0.0065,0.0133,0.0099,0.0095,0.0094,0.0177,0.0179,0.0181,0.0157,0.0157,0.0157,0,0,-0.0481,-0.0459,-0.048,-0.0458,-0.0423,-0.0382,-0.0382,-0.0326,-0.0294,-0.0255,-0.0193,-0.0137,-0.0065,-0.0005,0.0034,0.0031,0.0097,0.0041,0.0012,0.0089,0.0092,0.0095,0.016,0.0169,0.0047,0.0046,0.0046,0,-0.051,-0.0523,-0.048,-0.0492,-0.0483,-0.0406,-0.0421,-0.0374,-0.0308,-0.028,-0.0259,-0.0137,-0.0077,-0.0009,-0.001,0.002,0.0069,0.0026,0.0082,0.0086,0.0091,0.0157,0.0169,0.0043,0.0043,0.0043,0.0044,0,-0.057,-0.0578,-0.0589,-0.0575,-0.0559,-0.0558,-0.0495,-0.0463,-0.0414,-0.036,-0.0293,-0.0202,-0.0126,-0.0098,-0.0054,0.0006,0.0031,0.0059,0.0094,0.0088,0.0159,0.0172,0.0037,0.0038,0.004,0.0041,0,0,-0.0636,-0.0635,-0.0636,-0.0649,-0.0605,-0.06,-0.0569,-0.0516,-0.0491,-0.041,-0.0368,-0.027,-0.0213,-0.0165,-0.0093,-0.002,0.0052,0.0024,0.003,0.0081,0.0216,0.0259,0.0279,0.0088,0.009,0.0091,0.0251,0,-0.0694,-0.0746,-0.0718,-0.0751,-0.0771,-0.0698,-0.068,-0.062,-0.0544,-0.0479,-0.0362,-0.0299,-0.0238,-0.0202,-0.012,0.0009,0.0083,0.0005,0.0221,0.0227,0.0261,0.0295,0.0252,0.0393,0.0264,0.0267,0.0268,0,-0.0758,-0.0785,-0.0841,-0.0847,-0.0849,-0.0848,-0.0798,-0.0766,-0.0645,-0.0589,-0.0487,-0.0391,-0.0266,-0.0219,0.0,-0.0054,0.0067,0.0169,0.0179,0.0256,0.0296,0.0382,0.0423,0.0291,0.0289,0.0288,0.0286,0,-0.0836,-0.0865,-0.0917,-0.092,-0.0912,-0.0914,-0.0891,-0.0802,-0.0772,-0.0644,-0.0603,-0.0443,-0.0353,-0.0184,0.003,0.0016,0.0274,0.0287,0.0443,0.0447,0.0473,0.0477,0.0438,0.0438,0.0438,0.0437,0.0437,0,-0.0909,-0.0946,-0.0959,-0.099,-0.1042,-0.0999,-0.1009,-0.0955,-0.0866,-0.083,-0.0667,-0.0592,-0.0341,-0.0158,0.0021,0.028,0.0275,0.0448,0.0499,0.0444,0.0443,0.0401,0.0395,0.0443,0.0442,0.0441,0.044,0,-0.0984,-0.0991,-0.1055,-0.1075,-0.1085,-0.1119,-0.1104,-0.1095,-0.1001,-0.0941,-0.0906,-0.0686,-0.0441,-0.0183,0.0118,0.0274,0.051,0.06,0.0515,0.0553,0.0629,0.0616,0.0788,0.0791,0.0793,0.0796,0.0797,0,-0.1028,-0.107,-0.1135,-0.1177,-0.1189,-0.1223,-0.1241,-0.1174,-0.1153,-0.0996,-0.0971,-0.0719,-0.0523,-0.0059,0.0264,0.0605,0.0595,0.0749,0.0721,0.0637,0.0669,0.0652,0.0637,0.0724,0.0725,0.0726,0.0727,0,-0.1105,-0.1127,-0.1178,-0.1278,-0.1322,-0.1368,-0.1379,-0.1383,-0.1284,-0.1207,-0.1042,-0.0865,-0.0405,-0.001,0.0433,0.0613,0.069,0.0778,0.074,0.0635,0.0589,0.0615,0.0601,0.0735,0.0734,0.0733,0.0733,0.0733,-0.1149,-0.1209,-0.128,-0.1367,-0.143,-0.1485,-0.1508,-0.1482,-0.1439,-0.1286,-0.1106,-0.0805,-0.0407,0.0232,0.0548,0.0823,0.081,0.0872,0.0865,0.0858,0.0815,0.0775,0.0947,0.0948,0.0948,0.0949,0.0949,0,-0.1199,-0.1265,-0.1359,-0.146,-0.1541,-0.1552,-0.1579,-0.1552,-0.1491,-0.1299,-0.1095,-0.0649,-0.0184,0.0212,0.0673,0.095,0.091,0.0972,0.0874,0.0865,0.0857,0.081,0.0944,0.0945,0.0946,0.0947,0,0,-0.1224,-0.1325,-0.1378,-0.1524,-0.1594,-0.1656,-0.1664,-0.1591,-0.145,-0.125,-0.1019,-0.0672,-0.0171,0.0159,0.0512,0.0748,0.0724,0.0752,0.0725,0.0559,0.0549,0.0771,0.0685,0,0,0,0,0]}],[{"header":{"parameterUnit":"m.s-1","parameterCategory":2,"la1":30.2991,"la2":30.254,"lo1":-89.0895,"lo2":-89.0444,"dy":0.0017,"dx":0.0017,"nx":28,"ny":28,"refTime":"2024-05-09T21:00:00:Z","depth":"4","parameterNumber":2,"parameterNumberName":"U-component_of_CURRENTS"},"data":[0,0,0,0,0,0,0,0,0,0,0,0,0,0,0,0,0,0,0,0,0,0,0,0,0,0,0,0,0,0,0,0,0,0,0,0,0,0,0,0,0,0,0,0,0,0,0,0,0,0,0,0,0,0,0,0,0,0,-0.2096,-0.2098,0,-0.2199,-0.22,-0.2201,-0.2261,-0.2262,-0.2262,-0.2263,-0.236,-0.2362,-0.2364,0,0,0,0,0,0,0,0,0,0,0,0,0,-0.1969,-0.1971,-0.2096,-0.2098,-0.2099,-0.2198,-0.22,-0.2201,-0.2261,-0.2262,-0.2262,-0.2263,-0.2359,-0.2362,-0.2364,0,0,0,0,0,0,0,0,0,0,0,0,0,-0.2041,-0.1971,-0.2096,-0.2143,-0.2148,-0.2198,-0.22,-0.2201,-0.2261,-0.2262,-0.2263,-0.2263,-0.2358,-0.2362,-0.2365,-0.2372,0,0,-0.2375,-0.2376,0,0,0,0,0,0,0,0,-0.2037,-0.2046,-0.2134,-0.2139,-0.2146,-0.2219,-0.2191,-0.2259,-0.2261,-0.2216,-0.2263,-0.2263,-0.2313,-0.232,-0.2336,-0.2377,-0.2381,-0.2375,-0.2377,-0.2379,-0.2379,0,0,0,0,0,0,0,-0.2032,-0.2042,-0.2135,-0.2136,-0.2143,-0.2164,-0.2174,-0.2204,-0.2258,-0.222,-0.2225,-0.2239,-0.2316,-0.2332,-0.2338,-0.2382,-0.2375,-0.2378,-0.238,-0.2381,-0.2527,-0.2529,0,0,0,0,0,0,-0.2021,-0.2037,-0.2132,-0.2138,-0.2094,-0.2165,-0.2177,-0.2194,-0.2259,-0.227,-0.2239,-0.2242,-0.2326,-0.2334,-0.2342,-0.2446,-0.2378,-0.2382,-0.2383,-0.2526,-0.2528,-0.253,0,0,0,0,0,0,-0.2018,-0.2029,-0.2128,-0.2091,-0.2105,-0.2167,-0.2185,-0.2195,-0.225,-0.2273,-0.2283,-0.2287,-0.2327,-0.2337,-0.2405,-0.2446,-0.2383,-0.2386,-0.2523,-0.2526,-0.2529,-0.2595,0,0,0,0,0,0,-0.2014,-0.2027,-0.2053,-0.209,-0.2107,-0.2182,-0.2185,-0.2197,-0.2256,-0.2262,-0.2317,-0.2324,-0.2328,-0.24,-0.2408,-0.245,-0.2389,-0.2521,-0.2525,-0.2528,-0.259,-0.26,-0.2608,0,0,0,0,0,-0.2009,-0.2035,-0.2053,-0.2066,-0.2134,-0.2184,-0.2195,-0.2239,-0.2258,-0.2289,-0.233,-0.2325,-0.2428,-0.2405,-0.2414,-0.2457,-0.2519,-0.2524,-0.2528,-0.2586,-0.2598,-0.2607,0,0,0,0,0,0,-0.1994,-0.2045,-0.2066,-0.2107,-0.2155,-0.2195,-0.2233,-0.2261,-0.2319,-0.2336,-0.2353,-0.2364,-0.2437,-0.244,-0.2413,-0.2509,-0.2472,-0.2478,-0.2513,-0.2524,-0.2532,-0.2523,-0.2391,0,0,0,0,0,-0.2001,-0.2038,-0.2085,-0.2124,-0.2149,-0.2199,-0.2232,-0.2265,-0.2311,-0.234,-0.2379,-0.2418,-0.2455,-0.2485,-0.2516,-0.2573,-0.2549,-0.2605,-0.2614,-0.2621,-0.262,-0.2627,-0.2635,-0.2544,-0.2544,-0.2544,0,0,-0.2008,-0.2041,-0.2063,-0.2124,-0.2164,-0.2214,-0.2221,-0.2284,-0.2336,-0.234,-0.243,-0.2455,-0.2478,-0.2541,-0.2573,-0.2554,-0.2634,-0.2627,-0.2633,-0.2627,-0.2632,-0.2641,-0.2648,-0.2547,-0.2546,-0.2546,0,0,-0.2027,-0.2068,-0.2104,-0.2148,-0.2217,-0.2249,-0.2276,-0.2343,-0.2387,-0.2466,-0.248,-0.2531,-0.2599,-0.2617,-0.2633,-0.2709,-0.2679,-0.2727,-0.2768,-0.2775,-0.2782,-0.2788,-0.2759,-0.2762,-0.2732,-0.2733,-0.2733,0,-0.2035,-0.2083,-0.2124,-0.2171,-0.2213,-0.227,-0.2321,-0.2374,-0.2459,-0.2495,-0.2508,-0.2608,-0.263,-0.269,-0.2718,-0.2729,-0.2715,-0.2725,-0.2785,-0.279,-0.2795,-0.2764,-0.2766,-0.2736,-0.2736,-0.2735,-0.2735,0,-0.2071,-0.2127,-0.2154,-0.2231,-0.2283,-0.2338,-0.2408,-0.2477,-0.2535,-0.2577,-0.2665,-0.2698,-0.2749,-0.277,-0.2771,-0.2825,-0.2798,-0.2792,-0.2753,-0.2808,-0.2772,-0.2773,-0.2742,-0.274,-0.2739,-0.2738,0,0,-0.2035,-0.2156,-0.2168,-0.2216,-0.232,-0.2361,-0.2458,-0.2543,-0.2603,-0.2685,-0.2748,-0.2819,-0.2834,-0.2852,-0.2863,-0.2876,-0.2898,-0.2857,-0.2855,-0.2818,-0.2893,-0.2703,-0.2686,-0.2907,-0.2908,-0.2909,-0.2849,0,-0.2051,-0.2141,-0.2202,-0.2297,-0.2348,-0.2434,-0.2513,-0.2602,-0.2676,-0.2753,-0.2798,-0.286,-0.2866,-0.2894,-0.2914,-0.2906,-0.2906,-0.2913,-0.2853,-0.2851,-0.2668,-0.2683,-0.2912,-0.2849,-0.2849,-0.285,-0.285,0,-0.2053,-0.2116,-0.2211,-0.233,-0.2361,-0.2433,-0.2558,-0.2636,-0.2748,-0.2802,-0.2872,-0.2907,-0.2956,-0.2944,-0.2956,-0.2964,-0.2934,-0.2917,-0.2914,-0.2713,-0.2663,-0.2787,-0.2851,-0.2851,-0.2851,-0.2851,-0.285,0,-0.1984,-0.2115,-0.2191,-0.2235,-0.2382,-0.2447,-0.2527,-0.2652,-0.2717,-0.2829,-0.2875,-0.2942,-0.2974,-0.297,-0.2952,-0.296,-0.2934,-0.2934,-0.2731,-0.2716,-0.2877,-0.2871,-0.2925,-0.2925,-0.2925,-0.2925,-0.2925,0,-0.1951,-0.2014,-0.2174,-0.2212,-0.2302,-0.2419,-0.2519,-0.2607,-0.2728,-0.2772,-0.2889,-0.2913,-0.2986,-0.2987,-0.2957,-0.2831,-0.2936,-0.2722,-0.2687,-0.2905,-0.2903,-0.2876,-0.2871,-0.2923,-0.2923,-0.2924,-0.2924,0,-0.1856,-0.1967,-0.2056,-0.2219,-0.2274,-0.2335,-0.2499,-0.2547,-0.2691,-0.275,-0.2783,-0.2901,-0.2885,-0.2918,-0.2897,-0.2807,-0.2725,-0.2654,-0.2865,-0.2845,-0.2499,-0.2499,-0.2407,-0.24,-0.2394,-0.2389,-0.2384,0,-0.1812,-0.1854,-0.2029,-0.2072,-0.215,-0.2266,-0.2324,-0.2497,-0.2535,-0.27,-0.2685,-0.2758,-0.2798,-0.2614,-0.2676,-0.2586,-0.2561,-0.2502,-0.2515,-0.247,-0.2446,-0.2456,-0.2464,-0.2375,-0.2373,-0.2371,-0.237,0,-0.1707,-0.1789,-0.1852,-0.1951,-0.2027,-0.2107,-0.2204,-0.2226,-0.2388,-0.2538,-0.2513,-0.2507,-0.2485,-0.2467,-0.2419,-0.2361,-0.2533,-0.2438,-0.245,-0.2462,-0.243,-0.2414,-0.2429,-0.2349,-0.2352,-0.2354,-0.2355,0,-0.1614,-0.1633,-0.1728,-0.179,-0.188,-0.191,-0.1999,-0.2033,-0.2108,-0.2286,-0.226,-0.2338,-0.2443,-0.2346,-0.2298,-0.223,-0.2197,-0.2124,-0.2153,-0.2177,-0.2131,-0.2059,-0.1815,0,0,0,0,0,-0.1508,-0.151,-0.1556,-0.162,-0.1698,-0.1756,-0.1887,-0.1978,-0.2136,-0.2043,-0.2154,-0.2116,-0.2071,-0.2122,-0.1999,-0.219,-0.2207,-0.2039,-0.2141,-0.2231,-0.2256,-0.2224,0,0,0,0,0,0,-0.1436,-0.1473,-0.1495,-0.1455,-0.146,-0.1536,-0.1614,-0.1729,-0.1702,-0.1865,-0.1847,-0.1964,-0.1949,-0.2088,-0.1944,-0.1954,-0.197,-0.2094,-0.2087,-0.2217,-0.224,-0.2259,-0.2235,0,0,0,0,0]},{"header":{"parameterUnit":"m.s-1","parameterCategory":2,"la1":30.2991,"la2":30.254,"lo1":-89.0895,"lo2":-89.0444,"dy":0.0017,"dx":0.0017,"nx":28,"ny":28,"refTime":"2024-05-09T21:00:00:Z","depth":"4","parameterNumber":3,"parameterNumberName":"V-component_of_CURRENTS"},"data":[0,0,0,0,0,0,0,0,0,0,0,0,0,0,0,0,0,0,0,0,0,0,0,0,0,0,0,0,0,0,0,0,0,0,0,0,0,0,0,0,0,0,0,0,0,0,0,0,0,0,0,0,0,0,0,0,0,0,-0.019,-0.019,0,-0.0128,-0.0127,-0.0126,-0.0076,-0.0076,-0.0076,-0.0075,0.0028,0.0031,0.0033,0,0,0,0,0,0,0,0,0,0,0,0,0,-0.0216,-0.0215,-0.019,-0.019,-0.0189,-0.0128,-0.0127,-0.0126,-0.0076,-0.0076,-0.0076,-0.0075,0.0027,0.003,0.0033,0,0,0,0,0,0,0,0,0,0,0,0,0,-0.0182,-0.0215,-0.019,-0.0158,-0.0155,-0.0129,-0.0127,-0.0126,-0.0076,-0.0076,-0.0075,-0.0075,0.0026,0.003,0.0034,0.0047,0,0,0.0045,0.0046,0,0,0,0,0,0,0,0,-0.0184,-0.0181,-0.0164,-0.0161,-0.0157,-0.0111,-0.0098,-0.0067,-0.0077,-0.0104,-0.0075,-0.0075,-0.0016,-0.0009,0.0004,0.0052,0.0056,0.0045,0.0047,0.0049,0.005,0,0,0,0,0,0,0,-0.0187,-0.0183,-0.0163,-0.0163,-0.0159,-0.013,-0.0125,-0.0092,-0.0061,-0.0102,-0.0098,-0.0095,-0.0014,0.0,0.0007,0.0058,0.0045,0.0048,0.0051,0.0052,0.0138,0.0138,0,0,0,0,0,0,-0.0202,-0.0186,-0.0165,-0.0162,-0.0172,-0.0131,-0.0125,-0.0125,-0.0062,-0.0053,-0.0095,-0.0093,-0.0006,0.0002,0.0011,0.0037,0.0049,0.0052,0.0055,0.0138,0.0138,0.0138,0,0,0,0,0,0,-0.0203,-0.0201,-0.0168,-0.0174,-0.0168,-0.0131,-0.0131,-0.0124,-0.0111,-0.0059,-0.0048,-0.0091,-0.0006,0.0005,0.004,0.0041,0.0054,0.0057,0.0138,0.0138,0.0138,0.0085,0,0,0,0,0,0,-0.0204,-0.0202,-0.021,-0.0175,-0.0168,-0.016,-0.0131,-0.0123,-0.0111,-0.0107,-0.0051,-0.0041,-0.0004,0.0034,0.0044,0.0046,0.006,0.0138,0.0138,0.0138,0.0086,0.0083,0.008,0,0,0,0,0,-0.0205,-0.0221,-0.0211,-0.0209,-0.018,-0.0161,-0.0155,-0.0125,-0.0111,-0.0111,-0.0069,-0.0043,0.0042,0.0037,0.0048,0.0052,0.0138,0.0138,0.0138,0.0088,0.0084,0.008,0,0,0,0,0,0,-0.0237,-0.0217,-0.0205,-0.0214,-0.0193,-0.0154,-0.0155,-0.0132,-0.0099,-0.0096,-0.0042,-0.0029,-0.0001,0.0033,0.0026,0.0078,0.0094,0.0097,0.0052,0.0049,0.0046,0.003,0.0063,0,0,0,0,0,-0.0249,-0.0256,-0.0227,-0.0235,-0.0229,-0.0193,-0.0183,-0.0162,-0.0128,-0.0114,-0.0074,-0.003,0.0008,0.0033,0.0066,0.0097,0.0138,0.0107,0.0104,0.0101,0.0096,0.0165,0.0167,0.0139,0.0139,0.0139,0,0,-0.0265,-0.0255,-0.0259,-0.0243,-0.0225,-0.0222,-0.0186,-0.0177,-0.0168,-0.0108,-0.0086,-0.0045,0.0011,0.0042,0.0059,0.0073,0.013,0.0101,0.0098,0.0095,0.0165,0.0168,0.017,0.0139,0.0139,0.0139,0,0,-0.03,-0.0291,-0.0309,-0.0296,-0.0277,-0.0251,-0.0252,-0.0216,-0.0194,-0.0168,-0.0122,-0.0077,-0.0026,0.0023,0.0053,0.0054,0.0103,0.0061,0.0042,0.0109,0.0112,0.0115,0.0165,0.0173,0.0068,0.0068,0.0068,0,-0.0321,-0.0337,-0.031,-0.0322,-0.0321,-0.0268,-0.0284,-0.0251,-0.0206,-0.0188,-0.0172,-0.0081,-0.0033,0.0022,0.0024,0.0048,0.0085,0.0051,0.0105,0.0109,0.0113,0.0163,0.0173,0.0066,0.0066,0.0066,0.0066,0,-0.0366,-0.0378,-0.0389,-0.0385,-0.0378,-0.0382,-0.034,-0.0319,-0.0287,-0.0248,-0.0198,-0.0125,-0.007,-0.0043,-0.0008,0.0045,0.0061,0.0085,0.0112,0.0112,0.0165,0.0176,0.0062,0.0063,0.0064,0.0064,0,0,-0.041,-0.0421,-0.0424,-0.044,-0.0415,-0.0416,-0.0397,-0.0364,-0.035,-0.0288,-0.0261,-0.0178,-0.0134,-0.0097,-0.0037,0.0029,0.0094,0.0064,0.0068,0.0107,0.0228,0.0207,0.0218,0.0126,0.0128,0.0129,0.0252,0,-0.0453,-0.05,-0.0486,-0.052,-0.054,-0.0494,-0.0486,-0.0447,-0.0394,-0.0351,-0.0254,-0.021,-0.0154,-0.0127,-0.0052,0.0054,0.012,0.0057,0.0227,0.0231,0.0209,0.0229,0.0134,0.026,0.0263,0.0265,0.0266,0,-0.0498,-0.0526,-0.0579,-0.0599,-0.0604,-0.0613,-0.0591,-0.0571,-0.0485,-0.0446,-0.0367,-0.0293,-0.0186,-0.0143,0.0044,-0.0001,0.0103,0.0191,0.0198,0.0204,0.0231,0.0263,0.0286,0.0285,0.0283,0.0282,0.028,0,-0.055,-0.0587,-0.0637,-0.0644,-0.0655,-0.0669,-0.0662,-0.0604,-0.0589,-0.0498,-0.0472,-0.0339,-0.0269,-0.0121,0.0059,0.0053,0.0265,0.0283,0.0364,0.0364,0.0369,0.0365,0.0414,0.0414,0.0413,0.0413,0.0413,0,-0.0596,-0.0635,-0.0671,-0.0699,-0.0758,-0.0736,-0.0764,-0.073,-0.0675,-0.0654,-0.0527,-0.0473,-0.0259,-0.011,0.0046,0.0236,0.026,0.0362,0.0397,0.0343,0.0334,0.0377,0.0371,0.0418,0.0416,0.0416,0.0415,0,-0.0637,-0.0659,-0.0725,-0.0767,-0.0788,-0.0826,-0.0846,-0.0848,-0.079,-0.0753,-0.0728,-0.056,-0.0366,-0.0152,0.0103,0.0212,0.0399,0.0462,0.0379,0.0408,0.0454,0.0444,0.0556,0.0556,0.0556,0.0556,0.0557,0,-0.0659,-0.0698,-0.0787,-0.0835,-0.086,-0.0911,-0.0942,-0.0912,-0.0904,-0.0802,-0.0783,-0.0597,-0.0465,-0.0115,0.0098,0.0391,0.0432,0.0514,0.0491,0.0447,0.0471,0.046,0.045,0.0557,0.0557,0.0557,0.0557,0,-0.0698,-0.0736,-0.0791,-0.0897,-0.0957,-0.1014,-0.1047,-0.105,-0.0993,-0.0954,-0.0805,-0.0612,-0.039,-0.012,0.0112,0.0319,0.045,0.0518,0.0519,0.0497,0.045,0.0471,0.0461,0.0558,0.0558,0.0558,0.0558,0,-0.0722,-0.0774,-0.0853,-0.0939,-0.1027,-0.1078,-0.1094,-0.1063,-0.1041,-0.0919,-0.0873,-0.0618,-0.0466,-0.0156,0.0054,0.0257,0.0301,0.035,0.036,0.0361,0.0264,0.0173,0.023,0,0,0,0,0,-0.0735,-0.0793,-0.0884,-0.0978,-0.1066,-0.111,-0.1145,-0.1136,-0.1092,-0.0994,-0.0925,-0.0712,-0.0372,-0.022,-0.0018,0.004,0.0316,0.0277,0.0372,0.0564,0.0563,0.0479,0,0,0,0,0,0,-0.0742,-0.0831,-0.0881,-0.0989,-0.1055,-0.1138,-0.1158,-0.1129,-0.1058,-0.0984,-0.0795,-0.069,-0.0354,-0.0483,-0.0021,0.004,0.012,0.0441,0.0444,0.0565,0.0564,0.0563,0.0476,0,0,0,0,0]}]]